Time,TemperatureF,DewpointF,PressureIn,WindDirection,WindDirectionDegrees,WindSpeedMPH,WindSpeedGustMPH,Humidity,HourlyPrecipIn,Conditions,Clouds,dailyrainin,SoftwareType,DateUTC
2013-03-10 00:00:00,60.8,55.6,30.01,WNW,294,0.0,4.0,83,0.00,,,0.00,WeatherCatV1.02B3,2013-03-10 06:00:00,
2013-03-10 00:05:00,60.9,55.7,30.01,WNW,302,4.0,6.0,83,0.00,,,0.00,WeatherCatV1.02B3,2013-03-10 06:05:00,
2013-03-10 00:10:00,61.0,55.8,30.01,WNW,296,0.0,1.0,83,0.00,,,0.00,WeatherCatV1.02B3,2013-03-10 06:10:00,
2013-03-10 00:15:00,61.0,55.8,30.02,NW,304,0.0,3.0,83,0.00,,,0.00,WeatherCatV1.02B3,2013-03-10 06:15:00,
2013-03-10 00:20:00,61.1,55.9,30.01,WNW,296,4.0,11.0,83,0.00,,,0.00,WeatherCatV1.02B3,2013-03-10 06:20:00,
2013-03-10 00:25:00,61.1,56.2,30.01,NW,305,0.0,3.0,84,0.00,,,0.00,WeatherCatV1.02B3,2013-03-10 06:25:00,
2013-03-10 00:30:00,61.2,56.3,30.01,NW,305,0.0,6.0,84,0.00,,,0.00,WeatherCatV1.02B3,2013-03-10 06:30:00,
2013-03-10 00:35:00,61.2,56.3,30.01,WNW,297,0.0,5.0,84,0.00,,,0.00,WeatherCatV1.02B3,2013-03-10 06:35:00,
2013-03-10 00:40:00,61.2,56.3,30.01,WNW,300,0.0,6.0,84,0.00,,,0.00,WeatherCatV1.02B3,2013-03-10 06:40:00,
2013-03-10 00:45:00,61.3,56.4,30.01,WNW,297,2.0,3.0,84,0.00,,,0.00,WeatherCatV1.02B3,2013-03-10 06:45:00,
2013-03-10 00:50:00,61.3,56.4,30.01,NW,312,0.0,2.0,84,0.00,,,0.00,WeatherCatV1.02B3,2013-03-10 06:50:00,
2013-03-10 00:55:00,61.3,56.4,30.02,WNW,302,3.0,5.0,84,0.00,,,0.00,WeatherCatV1.02B3,2013-03-10 06:55:00,
2013-03-10 01:00:00,61.4,56.5,30.01,WNW,302,2.0,3.0,84,0.00,,,0.00,WeatherCatV1.02B3,2013-03-10 07:00:00,
2013-03-10 01:05:00,61.4,56.5,30.01,WNW,299,0.0,6.0,84,0.00,,,0.00,WeatherCatV1.02B3,2013-03-10 07:05:00,
2013-03-10 01:10:00,61.4,56.5,30.01,WNW,291,0.0,2.0,84,0.00,,,0.00,WeatherCatV1.02B3,2013-03-10 07:10:00,
2013-03-10 01:15:00,61.4,56.5,30.01,WNW,297,0.0,0.0,84,0.00,,,0.00,WeatherCatV1.02B3,2013-03-10 07:15:00,
2013-03-10 01:20:00,61.5,56.6,30.01,NW,320,0.0,1.0,84,0.00,,,0.00,WeatherCatV1.02B3,2013-03-10 07:20:00,
2013-03-10 01:25:00,61.5,56.9,30.01,NW,317,0.0,1.0,85,0.00,,,0.00,WeatherCatV1.02B3,2013-03-10 07:25:00,
2013-03-10 01:30:00,61.6,56.7,30.01,WNW,298,2.0,7.0,84,0.00,,,0.00,WeatherCatV1.02B3,2013-03-10 07:30:00,
2013-03-10 01:35:00,61.6,56.7,30.01,WNW,298,0.0,4.0,84,0.00,,,0.00,WeatherCatV1.02B3,2013-03-10 07:35:00,
2013-03-10 01:40:00,61.6,56.7,30.01,WNW,298,0.0,0.0,84,0.00,,,0.00,WeatherCatV1.02B3,2013-03-10 07:40:00,
2013-03-10 01:45:00,61.6,56.7,30.00,NW,310,5.0,6.0,84,0.00,,,0.00,WeatherCatV1.02B3,2013-03-10 07:45:00,
2013-03-10 01:50:00,61.6,57.0,30.00,NNW,340,1.0,8.0,85,0.00,,,0.00,WeatherCatV1.02B3,2013-03-10 07:50:00,
2013-03-10 01:55:00,61.6,57.0,30.00,NW,309,2.0,3.0,85,0.00,,,0.00,WeatherCatV1.02B3,2013-03-10 07:55:00,
2013-03-10 03:00:00,61.6,57.0,29.99,NW,310,0.0,2.0,85,0.00,,,0.00,WeatherCatV1.02B3,2013-03-10 08:00:00,
2013-03-10 03:03:00,61.5,56.9,29.99,NW,313,2.0,4.0,85,0.00,,,0.00,WeatherCatV1.02B3,2013-03-10 08:03:00,
2013-03-10 03:08:00,61.5,56.9,29.98,NW,313,0.0,3.0,85,0.00,,,0.00,WeatherCatV1.02B3,2013-03-10 08:08:00,
2013-03-10 03:13:00,61.5,56.9,29.99,NW,309,3.0,6.0,85,0.00,,,0.00,WeatherCatV1.02B3,2013-03-10 08:13:00,
2013-03-10 03:18:00,61.5,56.9,29.99,NW,307,1.0,5.0,85,0.00,,,0.00,WeatherCatV1.02B3,2013-03-10 08:18:00,
2013-03-10 03:23:00,61.5,56.9,30.00,NW,307,3.0,5.0,85,0.00,,,0.00,WeatherCatV1.02B3,2013-03-10 08:23:00,
2013-03-10 03:28:00,61.5,56.9,30.00,NW,309,0.0,4.0,85,0.00,,,0.00,WeatherCatV1.02B3,2013-03-10 08:28:00,
2013-03-10 03:33:00,61.4,56.8,29.99,NW,309,0.0,3.0,85,0.00,,,0.00,WeatherCatV1.02B3,2013-03-10 08:33:00,
2013-03-10 03:38:00,61.4,56.8,30.00,NW,315,0.0,3.0,85,0.00,,,0.00,WeatherCatV1.02B3,2013-03-10 08:38:00,
2013-03-10 03:43:00,61.4,56.8,30.00,WNW,296,0.0,4.0,85,0.00,,,0.00,WeatherCatV1.02B3,2013-03-10 08:43:00,
2013-03-10 03:48:00,61.4,56.8,29.99,West,269,0.0,0.0,85,0.00,,,0.00,WeatherCatV1.02B3,2013-03-10 08:48:00,
2013-03-10 03:53:00,61.4,56.8,29.99,NW,304,0.0,3.0,85,0.00,,,0.00,WeatherCatV1.02B3,2013-03-10 08:53:00,
2013-03-10 03:58:00,61.3,56.7,29.99,NW,306,1.0,2.0,85,0.00,,,0.00,WeatherCatV1.02B3,2013-03-10 08:58:00,
2013-03-10 04:03:00,61.3,57.1,29.99,NW,306,0.0,0.0,86,0.00,,,0.00,WeatherCatV1.02B3,2013-03-10 09:03:00,
2013-03-10 04:08:00,61.2,57.0,29.99,WNW,295,0.0,5.0,86,0.00,,,0.00,WeatherCatV1.02B3,2013-03-10 09:08:00,
2013-03-10 04:13:00,61.2,57.0,29.98,WNW,298,0.0,1.0,86,0.00,,,0.00,WeatherCatV1.02B3,2013-03-10 09:13:00,
2013-03-10 04:18:00,61.2,57.0,29.98,WNW,298,0.0,1.0,86,0.00,,,0.00,WeatherCatV1.02B3,2013-03-10 09:18:00,
2013-03-10 04:23:00,61.1,56.9,29.98,WNW,298,3.0,4.0,86,0.00,,,0.00,WeatherCatV1.02B3,2013-03-10 09:23:00,
2013-03-10 04:28:00,61.1,56.9,29.98,WNW,296,0.0,5.0,86,0.00,,,0.00,WeatherCatV1.02B3,2013-03-10 09:28:00,
2013-03-10 04:33:00,61.1,56.9,29.98,North,355,0.0,3.0,86,0.00,,,0.00,WeatherCatV1.02B3,2013-03-10 09:33:00,
2013-03-10 04:38:00,61.1,56.9,29.98,NNW,331,0.0,4.0,86,0.00,,,0.00,WeatherCatV1.02B3,2013-03-10 09:38:00,
2013-03-10 04:43:00,61.0,57.1,29.98,NW,325,1.0,1.0,87,0.00,,,0.00,WeatherCatV1.02B3,2013-03-10 09:43:00,
2013-03-10 04:48:00,61.0,57.1,29.98,WNW,291,0.0,3.0,87,0.00,,,0.00,WeatherCatV1.02B3,2013-03-10 09:48:00,
2013-03-10 04:53:00,60.8,56.9,29.97,WNW,287,0.0,3.0,87,0.00,,,0.00,WeatherCatV1.02B3,2013-03-10 09:53:00,
2013-03-10 04:58:00,60.7,56.8,29.96,WNW,286,2.0,2.0,87,0.00,,,0.00,WeatherCatV1.02B3,2013-03-10 09:58:00,
2013-03-10 05:03:00,60.7,56.8,29.96,WNW,294,2.0,2.0,87,0.00,,,0.00,WeatherCatV1.02B3,2013-03-10 10:03:00,
2013-03-10 05:08:00,60.6,56.7,29.96,WSW,257,0.0,4.0,87,0.00,,,0.00,WeatherCatV1.02B3,2013-03-10 10:08:00,
2013-03-10 05:13:00,60.5,56.9,29.96,NW,317,0.0,3.0,88,0.00,,,0.00,WeatherCatV1.02B3,2013-03-10 10:13:00,
2013-03-10 05:18:00,60.4,56.8,29.96,WNW,295,0.0,3.0,88,0.00,,,0.00,WeatherCatV1.02B3,2013-03-10 10:18:00,
2013-03-10 05:23:00,60.4,56.8,29.96,NNW,342,1.0,3.0,88,0.00,,,0.00,WeatherCatV1.02B3,2013-03-10 10:23:00,
2013-03-10 05:28:00,60.3,56.7,29.96,West,281,0.0,4.0,88,0.00,,,0.00,WeatherCatV1.02B3,2013-03-10 10:28:00,
2013-03-10 05:33:00,60.3,56.7,29.96,WNW,294,0.0,1.0,88,0.00,,,0.00,WeatherCatV1.02B3,2013-03-10 10:33:00,
2013-03-10 05:38:00,60.3,56.7,29.95,WNW,290,4.0,4.0,88,0.00,,,0.00,WeatherCatV1.02B3,2013-03-10 10:38:00,
2013-03-10 05:43:00,60.2,56.9,29.95,WNW,284,0.0,3.0,89,0.00,,,0.00,WeatherCatV1.02B3,2013-03-10 10:43:00,
2013-03-10 05:48:00,60.1,56.8,29.95,WNW,297,0.0,5.0,89,0.00,,,0.00,WeatherCatV1.02B3,2013-03-10 10:48:00,
2013-03-10 05:53:00,60.1,56.8,29.94,WNW,293,0.0,4.0,89,0.00,,,0.00,WeatherCatV1.02B3,2013-03-10 10:53:00,
2013-03-10 05:58:00,60.0,56.7,29.94,WNW,299,1.0,7.0,89,0.00,,,0.00,WeatherCatV1.02B3,2013-03-10 10:58:00,
2013-03-10 06:03:00,60.1,56.8,29.95,WNW,291,4.0,9.0,89,0.00,,,0.00,WeatherCatV1.02B3,2013-03-10 11:03:00,
2013-03-10 06:08:00,60.1,56.8,29.95,WNW,298,1.0,4.0,89,0.00,,,0.00,WeatherCatV1.02B3,2013-03-10 11:08:00,
2013-03-10 06:13:00,60.1,56.8,29.96,WNW,288,2.0,4.0,89,0.00,,,0.00,WeatherCatV1.02B3,2013-03-10 11:13:00,
2013-03-10 06:18:00,60.1,56.8,29.95,West,266,2.0,5.0,89,0.00,,,0.00,WeatherCatV1.02B3,2013-03-10 11:18:00,
2013-03-10 06:23:00,60.1,56.8,29.95,WNW,286,0.0,6.0,89,0.00,,,0.00,WeatherCatV1.02B3,2013-03-10 11:23:00,
2013-03-10 06:28:00,60.1,56.8,29.94,WNW,297,0.0,5.0,89,0.00,,,0.00,WeatherCatV1.02B3,2013-03-10 11:28:00,
2013-03-10 06:33:00,60.0,56.7,29.94,WNW,292,0.0,1.0,89,0.00,,,0.00,WeatherCatV1.02B3,2013-03-10 11:33:00,
2013-03-10 06:38:00,60.1,57.2,29.95,WNW,299,3.0,3.0,90,0.00,,,0.00,WeatherCatV1.02B3,2013-03-10 11:38:00,
2013-03-10 06:43:00,60.2,57.3,29.95,WNW,293,0.0,3.0,90,0.00,,,0.00,WeatherCatV1.02B3,2013-03-10 11:43:00,
2013-03-10 06:48:00,60.2,57.3,29.95,WNW,292,0.0,4.0,90,0.00,,,0.00,WeatherCatV1.02B3,2013-03-10 11:48:00,
2013-03-10 06:53:00,60.3,57.4,29.95,NW,304,5.0,5.0,90,0.00,,,0.00,WeatherCatV1.02B3,2013-03-10 11:53:00,
2013-03-10 06:58:00,60.4,57.5,29.95,WNW,301,5.0,5.0,90,0.00,,,0.00,WeatherCatV1.02B3,2013-03-10 11:58:00,
2013-03-10 07:03:00,60.5,57.5,29.95,WNW,301,0.0,3.0,90,0.00,,,0.00,WeatherCatV1.02B3,2013-03-10 12:03:00,
2013-03-10 07:08:00,60.6,57.6,29.94,NW,314,5.0,6.0,90,0.00,,,0.00,WeatherCatV1.02B3,2013-03-10 12:08:00,
2013-03-10 07:13:00,60.7,57.4,29.94,NW,317,3.0,6.0,89,0.00,,,0.00,WeatherCatV1.02B3,2013-03-10 12:13:00,
2013-03-10 07:18:00,60.8,57.5,29.94,WNW,298,6.0,6.0,89,0.00,,,0.00,WeatherCatV1.02B3,2013-03-10 12:18:00,
2013-03-10 07:23:00,60.9,57.6,29.94,WNW,299,4.0,6.0,89,0.00,,,0.00,WeatherCatV1.02B3,2013-03-10 12:23:00,
2013-03-10 07:28:00,60.9,57.6,29.94,WNW,299,0.0,4.0,89,0.00,,,0.00,WeatherCatV1.02B3,2013-03-10 12:28:00,
2013-03-10 07:33:00,61.0,57.7,29.94,WNW,300,1.0,5.0,89,0.00,,,0.00,WeatherCatV1.02B3,2013-03-10 12:33:00,
2013-03-10 07:38:00,61.1,57.8,29.94,West,263,3.0,8.0,89,0.00,,,0.00,WeatherCatV1.02B3,2013-03-10 12:38:00,
2013-03-10 07:43:00,61.2,57.9,29.94,WNW,299,0.0,4.0,89,0.00,,,0.00,WeatherCatV1.02B3,2013-03-10 12:43:00,
2013-03-10 07:48:00,61.3,58.0,29.94,NW,312,1.0,14.0,89,0.00,,,0.00,WeatherCatV1.02B3,2013-03-10 12:48:00,
2013-03-10 07:53:00,61.3,57.7,29.94,North,5,0.0,6.0,88,0.00,,,0.00,WeatherCatV1.02B3,2013-03-10 12:53:00,
2013-03-10 07:58:00,61.4,57.8,29.94,West,271,1.0,6.0,88,0.00,,,0.00,WeatherCatV1.02B3,2013-03-10 12:58:00,
2013-03-10 08:03:00,61.5,57.9,29.94,NW,307,2.0,5.0,88,0.00,,,0.00,WeatherCatV1.02B3,2013-03-10 13:03:00,
2013-03-10 08:08:00,61.6,58.0,29.94,NW,313,4.0,11.0,88,0.00,,,0.00,WeatherCatV1.02B3,2013-03-10 13:08:00,
2013-03-10 08:13:00,61.6,58.0,29.94,WNW,296,0.0,3.0,88,0.00,,,0.00,WeatherCatV1.02B3,2013-03-10 13:13:00,
2013-03-10 08:18:00,61.7,58.1,29.94,WNW,292,3.0,13.0,88,0.00,,,0.00,WeatherCatV1.02B3,2013-03-10 13:18:00,
2013-03-10 08:23:00,61.8,58.2,29.95,NW,315,2.0,6.0,88,0.00,,,0.00,WeatherCatV1.02B3,2013-03-10 13:23:00,
2013-03-10 08:28:00,62.0,58.4,29.95,NW,306,2.0,5.0,88,0.00,,,0.00,WeatherCatV1.02B3,2013-03-10 13:28:00,
2013-03-10 08:33:00,62.1,58.2,29.95,NW,304,2.0,7.0,87,0.00,,,0.00,WeatherCatV1.02B3,2013-03-10 13:33:00,
2013-03-10 08:38:00,62.2,58.3,29.95,WNW,285,3.0,4.0,87,0.00,,,0.00,WeatherCatV1.02B3,2013-03-10 13:38:00,
2013-03-10 08:43:00,62.3,58.4,29.95,NW,313,8.0,11.0,87,0.00,,,0.00,WeatherCatV1.02B3,2013-03-10 13:43:00,
2013-03-10 08:48:00,62.3,58.4,29.95,NW,308,3.0,6.0,87,0.00,,,0.00,WeatherCatV1.02B3,2013-03-10 13:48:00,
2013-03-10 08:53:00,62.5,58.6,29.95,NNE,13,6.0,7.0,87,0.00,,,0.00,WeatherCatV1.02B3,2013-03-10 13:53:00,
2013-03-10 08:58:00,62.6,58.7,29.96,NW,306,4.0,8.0,87,0.00,,,0.00,WeatherCatV1.02B3,2013-03-10 13:58:00,
2013-03-10 09:03:00,62.7,58.8,29.96,WNW,298,3.0,4.0,87,0.00,,,0.00,WeatherCatV1.02B3,2013-03-10 14:03:00,
2013-03-10 09:08:00,62.8,58.9,29.97,NNW,337,0.0,10.0,87,0.00,,,0.00,WeatherCatV1.02B3,2013-03-10 14:08:00,
2013-03-10 09:13:00,62.9,59.0,29.97,North,5,4.0,4.0,87,0.00,,,0.00,WeatherCatV1.02B3,2013-03-10 14:13:00,
2013-03-10 09:18:00,63.0,58.7,29.97,NNW,348,6.0,6.0,86,0.00,,,0.00,WeatherCatV1.02B3,2013-03-10 14:18:00,
2013-03-10 09:23:00,63.0,58.7,29.97,NW,319,4.0,4.0,86,0.00,,,0.00,WeatherCatV1.02B3,2013-03-10 14:23:00,
2013-03-10 09:28:00,63.1,58.8,29.98,WNW,290,5.0,5.0,86,0.00,,,0.00,WeatherCatV1.02B3,2013-03-10 14:28:00,
2013-03-10 09:33:00,63.2,58.9,29.98,NW,311,2.0,12.0,86,0.00,,,0.00,WeatherCatV1.02B3,2013-03-10 14:33:00,
2013-03-10 09:38:00,63.3,59.0,29.97,NW,311,1.0,6.0,86,0.00,,,0.00,WeatherCatV1.02B3,2013-03-10 14:38:00,
2013-03-10 09:43:00,63.5,59.2,29.97,NNW,344,4.0,7.0,86,0.00,,,0.00,WeatherCatV1.02B3,2013-03-10 14:43:00,
2013-03-10 09:48:00,63.8,59.2,29.97,NW,309,2.0,10.0,85,0.00,,,0.00,WeatherCatV1.02B3,2013-03-10 14:48:00,
2013-03-10 09:53:00,63.9,59.3,29.98,NW,311,3.0,7.0,85,0.00,,,0.00,WeatherCatV1.02B3,2013-03-10 14:53:00,
2013-03-10 09:58:00,64.0,59.4,29.98,NW,311,4.0,9.0,85,0.00,,,0.00,WeatherCatV1.02B3,2013-03-10 14:58:00,
2013-03-10 10:03:00,64.1,59.5,29.98,WNW,297,0.0,5.0,85,0.00,,,0.00,WeatherCatV1.02B3,2013-03-10 15:03:00,
2013-03-10 10:08:00,64.1,59.5,29.98,WNW,298,5.0,10.0,85,0.00,,,0.00,WeatherCatV1.02B3,2013-03-10 15:08:00,
2013-03-10 10:13:00,64.2,59.6,29.98,NNW,331,7.0,7.0,85,0.00,,,0.00,WeatherCatV1.02B3,2013-03-10 15:13:00,
2013-03-10 10:18:00,64.4,59.8,29.98,NNW,334,4.0,6.0,85,0.00,,,0.00,WeatherCatV1.02B3,2013-03-10 15:18:00,
2013-03-10 10:23:00,64.8,60.2,29.98,NW,313,4.0,7.0,85,0.00,,,0.00,WeatherCatV1.02B3,2013-03-10 15:23:00,
2013-03-10 10:28:00,65.4,60.4,29.97,NW,309,5.0,7.0,84,0.00,,,0.00,WeatherCatV1.02B3,2013-03-10 15:28:00,
2013-03-10 10:33:00,66.1,60.4,29.96,West,271,4.0,13.0,82,0.00,,,0.00,WeatherCatV1.02B3,2013-03-10 15:33:00,
2013-03-10 10:38:00,66.5,60.8,29.96,NW,313,6.0,12.0,82,0.00,,,0.00,WeatherCatV1.02B3,2013-03-10 15:38:00,
2013-03-10 10:43:00,66.9,60.5,29.95,NW,324,4.0,8.0,80,0.00,,,0.00,WeatherCatV1.02B3,2013-03-10 15:43:00,
2013-03-10 10:48:00,66.9,60.5,29.96,NW,315,1.0,6.0,80,0.00,,,0.00,WeatherCatV1.02B3,2013-03-10 15:48:00,
2013-03-10 10:53:00,67.0,60.6,29.96,NW,308,1.0,4.0,80,0.00,,,0.00,WeatherCatV1.02B3,2013-03-10 15:53:00,
2013-03-10 10:58:00,67.2,60.8,29.96,WNW,291,3.0,11.0,80,0.00,,,0.00,WeatherCatV1.02B3,2013-03-10 15:58:00,
2013-03-10 11:03:00,67.3,60.9,29.97,NW,311,3.0,6.0,80,0.00,,,0.00,WeatherCatV1.02B3,2013-03-10 16:03:00,
2013-03-10 11:08:00,67.3,60.6,29.97,WNW,284,6.0,6.0,79,0.00,,,0.00,WeatherCatV1.02B3,2013-03-10 16:08:00,
2013-03-10 11:13:00,67.3,60.6,29.96,NW,322,2.0,6.0,79,0.00,,,0.00,WeatherCatV1.02B3,2013-03-10 16:13:00,
2013-03-10 11:18:00,67.3,60.9,29.96,North,355,2.0,9.0,80,0.00,,,0.00,WeatherCatV1.02B3,2013-03-10 16:18:00,
2013-03-10 11:23:00,67.5,61.1,29.95,NW,319,1.0,4.0,80,0.00,,,0.00,WeatherCatV1.02B3,2013-03-10 16:23:00,
2013-03-10 11:28:00,67.8,61.0,29.95,NW,317,2.0,8.0,79,0.00,,,0.00,WeatherCatV1.02B3,2013-03-10 16:28:00,
2013-03-10 11:33:00,68.1,61.3,29.94,NNE,20,9.0,10.0,79,0.00,,,0.00,WeatherCatV1.02B3,2013-03-10 16:33:00,
2013-03-10 11:38:00,68.4,61.3,29.94,WNW,301,5.0,12.0,78,0.00,,,0.00,WeatherCatV1.02B3,2013-03-10 16:38:00,
2013-03-10 11:43:00,68.7,61.6,29.94,North,9,0.0,7.0,78,0.00,,,0.00,WeatherCatV1.02B3,2013-03-10 16:43:00,
2013-03-10 11:48:00,68.8,61.3,29.94,WNW,298,1.0,5.0,77,0.00,,,0.00,WeatherCatV1.02B3,2013-03-10 16:48:00,
2013-03-10 11:53:00,68.7,61.2,29.93,North,5,1.0,7.0,77,0.00,,,0.00,WeatherCatV1.02B3,2013-03-10 16:53:00,
2013-03-10 11:58:00,68.8,61.3,29.94,NNW,336,2.0,11.0,77,0.00,,,0.00,WeatherCatV1.02B3,2013-03-10 16:58:00,
2013-03-10 12:03:00,69.3,61.8,29.94,NNW,332,2.0,6.0,77,0.00,,,0.00,WeatherCatV1.02B3,2013-03-10 17:03:00,
2013-03-10 12:08:00,70.2,62.3,29.94,NNW,328,2.0,9.0,76,0.00,,,0.00,WeatherCatV1.02B3,2013-03-10 17:08:00,
2013-03-10 12:13:00,71.1,62.8,29.94,NW,306,8.0,11.0,75,0.00,,,0.00,WeatherCatV1.02B3,2013-03-10 17:13:00,
2013-03-10 12:18:00,72.4,63.2,29.94,West,275,3.0,13.0,73,0.00,,,0.00,WeatherCatV1.02B3,2013-03-10 17:18:00,
2013-03-10 12:23:00,73.1,63.1,29.94,NNW,340,3.0,7.0,71,0.00,,,0.00,WeatherCatV1.02B3,2013-03-10 17:23:00,
2013-03-10 12:28:00,73.3,62.9,29.93,WNW,291,3.0,8.0,70,0.00,,,0.00,WeatherCatV1.02B3,2013-03-10 17:28:00,
2013-03-10 12:33:00,72.8,62.4,29.93,NW,310,11.0,14.0,70,0.00,,,0.00,WeatherCatV1.02B3,2013-03-10 17:33:00,
2013-03-10 12:38:00,72.2,61.9,29.93,WNW,295,4.0,6.0,70,0.00,,,0.00,WeatherCatV1.02B3,2013-03-10 17:38:00,
2013-03-10 12:43:00,71.8,61.9,29.93,NW,323,3.0,9.0,71,0.00,,,0.00,WeatherCatV1.02B3,2013-03-10 17:43:00,
2013-03-10 12:48:00,71.7,61.8,29.92,WNW,291,2.0,16.0,71,0.00,,,0.00,WeatherCatV1.02B3,2013-03-10 17:48:00,
2013-03-10 12:53:00,71.9,62.0,29.92,NW,324,2.0,5.0,71,0.00,,,0.00,WeatherCatV1.02B3,2013-03-10 17:53:00,
2013-03-10 12:58:00,72.5,62.5,29.91,North,350,2.0,11.0,71,0.00,,,0.00,WeatherCatV1.02B3,2013-03-10 17:58:00,
2013-03-10 13:03:00,73.0,62.2,29.91,NW,306,9.0,9.0,69,0.00,,,0.00,WeatherCatV1.02B3,2013-03-10 18:03:00,
2013-03-10 13:08:00,73.7,62.5,29.90,NW,321,8.0,16.0,68,0.00,,,0.00,WeatherCatV1.02B3,2013-03-10 18:08:00,
2013-03-10 13:13:00,74.0,62.3,29.89,West,279,1.0,10.0,67,0.00,,,0.00,WeatherCatV1.02B3,2013-03-10 18:13:00,
2013-03-10 13:18:00,74.2,62.1,29.89,NW,321,2.0,13.0,66,0.00,,,0.00,WeatherCatV1.02B3,2013-03-10 18:18:00,
2013-03-10 13:23:00,74.4,61.8,29.88,WNW,294,7.0,16.0,65,0.00,,,0.00,WeatherCatV1.02B3,2013-03-10 18:23:00,
2013-03-10 13:28:00,74.6,62.0,29.88,NW,311,4.0,12.0,65,0.00,,,0.00,WeatherCatV1.02B3,2013-03-10 18:28:00,
2013-03-10 13:33:00,75.2,62.6,29.88,North,355,10.0,17.0,65,0.00,,,0.00,WeatherCatV1.02B3,2013-03-10 18:33:00,
2013-03-10 13:38:00,75.5,62.0,29.88,West,274,9.0,15.0,63,0.00,,,0.00,WeatherCatV1.02B3,2013-03-10 18:38:00,
2013-03-10 13:43:00,75.8,62.3,29.88,NW,320,7.0,11.0,63,0.00,,,0.00,WeatherCatV1.02B3,2013-03-10 18:43:00,
2013-03-10 13:48:00,76.4,62.4,29.88,NW,306,2.0,11.0,62,0.00,,,0.00,WeatherCatV1.02B3,2013-03-10 18:48:00,
2013-03-10 13:53:00,77.1,62.6,29.88,North,0,4.0,11.0,61,0.00,,,0.00,WeatherCatV1.02B3,2013-03-10 18:53:00,
2013-03-10 13:58:00,77.4,62.4,29.87,North,349,1.0,8.0,60,0.00,,,0.00,WeatherCatV1.02B3,2013-03-10 18:58:00,
2013-03-10 14:03:00,77.0,62.5,29.87,NNW,327,4.0,7.0,61,0.00,,,0.00,WeatherCatV1.02B3,2013-03-10 19:03:00,
2013-03-10 14:08:00,76.2,61.7,29.86,NW,323,7.0,15.0,61,0.00,,,0.00,WeatherCatV1.02B3,2013-03-10 19:08:00,
2013-03-10 14:13:00,75.7,61.7,29.87,NW,319,12.0,14.0,62,0.00,,,0.00,WeatherCatV1.02B3,2013-03-10 19:13:00,
2013-03-10 14:18:00,75.4,61.5,29.86,NW,321,3.0,12.0,62,0.00,,,0.00,WeatherCatV1.02B3,2013-03-10 19:18:00,
2013-03-10 14:23:00,75.3,61.4,29.86,West,267,4.0,9.0,62,0.00,,,0.00,WeatherCatV1.02B3,2013-03-10 19:23:00,
2013-03-10 14:28:00,75.1,61.2,29.86,NNE,22,9.0,15.0,62,0.00,,,0.00,WeatherCatV1.02B3,2013-03-10 19:28:00,
2013-03-10 14:33:00,74.7,60.8,29.86,West,273,4.0,11.0,62,0.00,,,0.00,WeatherCatV1.02B3,2013-03-10 19:33:00,
2013-03-10 14:38:00,74.3,60.9,29.86,WNW,298,10.0,15.0,63,0.00,,,0.00,WeatherCatV1.02B3,2013-03-10 19:38:00,
2013-03-10 14:41:00,74.1,60.7,29.86,WNW,290,6.0,14.0,63,0.00,,,0.00,WeatherCatV1.02B3,2013-03-10 19:41:00,
2013-03-10 14:46:00,73.9,60.9,29.86,WNW,299,2.0,10.0,64,0.00,,,0.00,WeatherCatV1.02B3,2013-03-10 19:46:00,
2013-03-10 14:51:00,73.8,60.8,29.86,WNW,296,4.0,11.0,64,0.00,,,0.00,WeatherCatV1.02B3,2013-03-10 19:51:00,
2013-03-10 14:56:00,73.8,60.8,29.86,WNW,300,5.0,14.0,64,0.00,,,0.00,WeatherCatV1.02B3,2013-03-10 19:56:00,
2013-03-10 15:01:00,74.0,60.6,29.86,West,278,2.0,12.0,63,0.00,,,0.00,WeatherCatV1.02B3,2013-03-10 20:01:00,
2013-03-10 15:06:00,74.1,60.7,29.86,NW,317,1.0,9.0,63,0.00,,,0.00,WeatherCatV1.02B3,2013-03-10 20:06:00,
2013-03-10 15:11:00,74.0,60.6,29.86,NW,324,2.0,6.0,63,0.00,,,0.00,WeatherCatV1.02B3,2013-03-10 20:11:00,
2013-03-10 15:16:00,73.8,60.4,29.86,NNW,340,5.0,6.0,63,0.00,,,0.00,WeatherCatV1.02B3,2013-03-10 20:16:00,
2013-03-10 15:21:00,73.7,60.3,29.86,WNW,298,9.0,9.0,63,0.00,,,0.00,WeatherCatV1.02B3,2013-03-10 20:21:00,
2013-03-10 15:26:00,73.5,60.1,29.86,NNE,19,4.0,9.0,63,0.00,,,0.00,WeatherCatV1.02B3,2013-03-10 20:26:00,
2013-03-10 15:31:00,73.4,60.5,29.86,NNW,328,6.0,7.0,64,0.00,,,0.00,WeatherCatV1.02B3,2013-03-10 20:31:00,
2013-03-10 15:36:00,73.4,60.0,29.86,WNW,285,3.0,12.0,63,0.00,,,0.00,WeatherCatV1.02B3,2013-03-10 20:36:00,
2013-03-10 15:41:00,73.3,60.4,29.85,WNW,303,1.0,6.0,64,0.00,,,0.00,WeatherCatV1.02B3,2013-03-10 20:41:00,
2013-03-10 15:46:00,73.3,60.4,29.85,WNW,298,3.0,14.0,64,0.00,,,0.00,WeatherCatV1.02B3,2013-03-10 20:46:00,
2013-03-10 15:51:00,73.3,60.4,29.85,WNW,288,4.0,6.0,64,0.00,,,0.00,WeatherCatV1.02B3,2013-03-10 20:51:00,
2013-03-10 15:56:00,73.3,60.4,29.85,WNW,302,7.0,9.0,64,0.00,,,0.00,WeatherCatV1.02B3,2013-03-10 20:56:00,
2013-03-10 16:01:00,73.2,60.3,29.84,WNW,302,6.0,19.0,64,0.00,,,0.00,WeatherCatV1.02B3,2013-03-10 21:01:00,
2013-03-10 16:06:00,73.1,60.2,29.84,WNW,298,2.0,13.0,64,0.00,,,0.00,WeatherCatV1.02B3,2013-03-10 21:06:00,
2013-03-10 16:11:00,73.1,60.6,29.84,NW,323,3.0,9.0,65,0.00,,,0.00,WeatherCatV1.02B3,2013-03-10 21:11:00,
2013-03-10 16:16:00,73.1,60.6,29.84,West,278,7.0,11.0,65,0.00,,,0.00,WeatherCatV1.02B3,2013-03-10 21:16:00,
2013-03-10 16:21:00,73.1,60.6,29.84,WNW,284,3.0,12.0,65,0.00,,,0.00,WeatherCatV1.02B3,2013-03-10 21:21:00,
2013-03-10 16:26:00,73.0,60.5,29.84,North,355,2.0,12.0,65,0.00,,,0.00,WeatherCatV1.02B3,2013-03-10 21:26:00,
2013-03-10 16:31:00,73.0,60.5,29.84,NW,317,0.0,5.0,65,0.00,,,0.00,WeatherCatV1.02B3,2013-03-10 21:31:00,
2013-03-10 16:36:00,72.9,60.9,29.84,NW,323,11.0,11.0,66,0.00,,,0.00,WeatherCatV1.02B3,2013-03-10 21:36:00,
2013-03-10 16:41:00,72.9,60.9,29.84,NW,304,3.0,8.0,66,0.00,,,0.00,WeatherCatV1.02B3,2013-03-10 21:41:00,
2013-03-10 16:46:00,72.8,60.8,29.84,WNW,297,3.0,7.0,66,0.00,,,0.00,WeatherCatV1.02B3,2013-03-10 21:46:00,
2013-03-10 16:51:00,72.7,60.7,29.84,NW,309,1.0,6.0,66,0.00,,,0.00,WeatherCatV1.02B3,2013-03-10 21:51:00,
2013-03-10 16:56:00,72.6,60.6,29.84,WNW,297,0.0,12.0,66,0.00,,,0.00,WeatherCatV1.02B3,2013-03-10 21:56:00,
2013-03-10 17:01:00,72.6,60.6,29.83,NW,313,8.0,8.0,66,0.00,,,0.00,WeatherCatV1.02B3,2013-03-10 22:01:00,
2013-03-10 17:06:00,72.6,61.0,29.83,NE,38,4.0,7.0,67,0.00,,,0.00,WeatherCatV1.02B3,2013-03-10 22:06:00,
2013-03-10 17:11:00,72.5,60.9,29.84,NW,320,1.0,9.0,67,0.00,,,0.00,WeatherCatV1.02B3,2013-03-10 22:11:00,
2013-03-10 17:16:00,72.4,60.8,29.84,NW,317,10.0,10.0,67,0.00,,,0.00,WeatherCatV1.02B3,2013-03-10 22:16:00,
2013-03-10 17:21:00,72.3,61.1,29.84,NW,321,7.0,7.0,68,0.00,,,0.00,WeatherCatV1.02B3,2013-03-10 22:21:00,
2013-03-10 17:26:00,72.2,61.0,29.84,NW,322,3.0,6.0,68,0.00,,,0.00,WeatherCatV1.02B3,2013-03-10 22:26:00,
2013-03-10 17:31:00,72.1,60.9,29.84,WNW,300,1.0,7.0,68,0.00,,,0.00,WeatherCatV1.02B3,2013-03-10 22:31:00,
2013-03-10 17:36:00,72.0,61.3,29.84,NNW,328,3.0,8.0,69,0.00,,,0.00,WeatherCatV1.02B3,2013-03-10 22:36:00,
2013-03-10 17:41:00,71.8,61.1,29.84,West,270,3.0,10.0,69,0.00,,,0.00,WeatherCatV1.02B3,2013-03-10 22:41:00,
2013-03-10 17:46:00,71.7,61.0,29.84,WNW,294,5.0,8.0,69,0.00,,,0.00,WeatherCatV1.02B3,2013-03-10 22:46:00,
2013-03-10 17:51:00,71.5,61.6,29.85,North,349,0.0,4.0,71,0.00,,,0.00,WeatherCatV1.02B3,2013-03-10 22:51:00,
2013-03-10 17:56:00,71.2,61.3,29.85,NNW,341,0.0,1.0,71,0.00,,,0.00,WeatherCatV1.02B3,2013-03-10 22:56:00,
2013-03-10 18:01:00,69.4,60.4,29.87,NE,46,0.0,8.0,73,0.00,,,0.00,WeatherCatV1.02B3,2013-03-10 23:01:00,
2013-03-10 18:06:00,65.0,58.0,29.88,ENE,76,13.0,13.0,78,0.00,,,0.00,WeatherCatV1.02B3,2013-03-10 23:06:00,
2013-03-10 18:11:00,60.3,55.4,29.88,East,100,7.0,13.0,84,1.88,,,0.09,WeatherCatV1.02B3,2013-03-10 23:11:00,
2013-03-10 18:16:00,58.5,55.3,29.88,SE,139,2.0,6.0,89,0.33,,,0.14,WeatherCatV1.02B3,2013-03-10 23:16:00,
2013-03-10 18:21:00,57.7,54.8,29.87,SSE,151,2.0,7.0,90,0.14,,,0.15,WeatherCatV1.02B3,2013-03-10 23:21:00,
2013-03-10 18:26:00,57.3,54.7,29.88,East,89,2.0,2.0,91,0.12,,,0.16,WeatherCatV1.02B3,2013-03-10 23:26:00,
2013-03-10 18:31:00,57.1,54.8,29.88,East,86,1.0,4.0,92,0.10,,,0.17,WeatherCatV1.02B3,2013-03-10 23:31:00,
2013-03-10 18:36:00,57.1,54.8,29.89,SSW,207,0.0,1.0,92,0.17,,,0.18,WeatherCatV1.02B3,2013-03-10 23:36:00,
2013-03-10 18:41:00,57.1,54.8,29.89,SSW,204,0.0,2.0,92,0.08,,,0.18,WeatherCatV1.02B3,2013-03-10 23:41:00,
2013-03-10 18:46:00,57.1,55.1,29.88,SSW,201,0.0,4.0,93,0.05,,,0.18,WeatherCatV1.02B3,2013-03-10 23:46:00,
2013-03-10 18:51:00,57.0,55.0,29.87,SSW,194,0.0,4.0,93,0.04,,,0.19,WeatherCatV1.02B3,2013-03-10 23:51:00,
2013-03-10 18:56:00,56.7,54.7,29.86,SE,136,2.0,7.0,93,0.10,,,0.20,WeatherCatV1.02B3,2013-03-10 23:56:00,
2013-03-10 19:01:00,56.4,54.4,29.88,ENE,78,3.0,7.0,93,0.10,,,0.20,WeatherCatV1.02B3,2013-03-11 00:01:00,
2013-03-10 19:06:00,56.1,54.1,29.91,NW,310,4.0,6.0,93,0.62,,,0.22,WeatherCatV1.02B3,2013-03-11 00:06:00,
2013-03-10 19:11:00,55.9,54.2,29.87,SSW,200,0.0,7.0,94,4.84,,,0.44,WeatherCatV1.02B3,2013-03-11 00:11:00,
2013-03-10 19:16:00,55.8,54.1,29.89,SW,217,0.0,2.0,94,0.74,,,0.52,WeatherCatV1.02B3,2013-03-11 00:16:00,
2013-03-10 19:21:00,55.8,54.1,29.90,ENE,61,1.0,2.0,94,1.04,,,0.56,WeatherCatV1.02B3,2013-03-11 00:21:00,
2013-03-10 19:26:00,55.8,54.1,29.89,South,186,1.0,5.0,94,0.31,,,0.62,WeatherCatV1.02B3,2013-03-11 00:26:00,
2013-03-10 19:31:00,55.8,54.1,29.89,SSW,194,0.0,2.0,94,0.12,,,0.63,WeatherCatV1.02B3,2013-03-11 00:31:00,
2013-03-10 19:36:00,55.8,54.1,29.90,SSW,194,0.0,0.0,94,0.32,,,0.66,WeatherCatV1.02B3,2013-03-11 00:36:00,
2013-03-10 19:41:00,55.8,54.4,29.89,SSW,193,0.0,1.0,95,0.78,,,0.72,WeatherCatV1.02B3,2013-03-11 00:41:00,
2013-03-10 19:46:00,55.8,54.4,29.90,SSW,193,0.0,0.0,95,0.67,,,0.76,WeatherCatV1.02B3,2013-03-11 00:46:00,
2013-03-10 19:51:00,55.8,54.4,29.90,SSW,193,0.0,0.0,95,0.26,,,0.79,WeatherCatV1.02B3,2013-03-11 00:51:00,
2013-03-10 19:56:00,55.7,54.3,29.89,SSW,193,0.0,1.0,95,0.12,,,0.80,WeatherCatV1.02B3,2013-03-11 00:56:00,
2013-03-10 20:01:00,55.7,54.3,29.89,SSW,193,0.0,0.0,95,0.06,,,0.81,WeatherCatV1.02B3,2013-03-11 01:01:00,
2013-03-10 20:06:00,55.8,54.4,29.90,SSW,193,0.0,0.0,95,0.14,,,0.82,WeatherCatV1.02B3,2013-03-11 01:06:00,
2013-03-10 20:11:00,55.8,54.4,29.89,SSW,193,0.0,2.0,95,0.49,,,0.86,WeatherCatV1.02B3,2013-03-11 01:11:00,
2013-03-10 20:16:00,55.8,54.4,29.89,SSW,193,0.0,1.0,95,0.26,,,0.88,WeatherCatV1.02B3,2013-03-11 01:16:00,
2013-03-10 20:21:00,55.8,54.4,29.90,South,189,1.0,1.0,95,0.46,,,0.90,WeatherCatV1.02B3,2013-03-11 01:21:00,
2013-03-10 20:26:00,55.8,54.4,29.90,South,186,0.0,0.0,95,0.78,,,0.96,WeatherCatV1.02B3,2013-03-11 01:26:00,
2013-03-10 20:31:00,55.7,54.3,29.89,South,186,0.0,2.0,95,0.29,,,0.98,WeatherCatV1.02B3,2013-03-11 01:31:00,
2013-03-10 20:36:00,55.7,54.3,29.91,South,186,0.0,1.0,95,0.10,,,0.98,WeatherCatV1.02B3,2013-03-11 01:36:00,
2013-03-10 20:41:00,55.7,54.3,29.90,South,186,0.0,0.0,95,0.96,,,1.02,WeatherCatV1.02B3,2013-03-11 01:41:00,
2013-03-10 20:46:00,55.7,54.3,29.90,South,186,0.0,1.0,95,0.26,,,1.05,WeatherCatV1.02B3,2013-03-11 01:46:00,
2013-03-10 20:51:00,55.7,54.3,29.90,South,186,0.0,0.0,95,0.18,,,1.06,WeatherCatV1.02B3,2013-03-11 01:51:00,
2013-03-10 20:56:00,55.7,54.3,29.91,South,186,0.0,0.0,95,0.07,,,1.06,WeatherCatV1.02B3,2013-03-11 01:56:00,
2013-03-10 21:01:00,55.7,54.3,29.92,South,186,0.0,0.0,95,0.05,,,1.06,WeatherCatV1.02B3,2013-03-11 02:01:00,
2013-03-10 21:06:00,55.7,54.3,29.92,South,186,0.0,2.0,95,0.00,,,1.06,WeatherCatV1.02B3,2013-03-11 02:06:00,
2013-03-10 21:11:00,55.7,54.3,29.92,South,186,0.0,2.0,95,0.00,,,1.07,WeatherCatV1.02B3,2013-03-11 02:11:00,
2013-03-10 21:16:00,55.8,54.4,29.91,South,186,0.0,2.0,95,0.00,,,1.07,WeatherCatV1.02B3,2013-03-11 02:16:00,
2013-03-10 21:21:00,55.8,54.4,29.91,South,186,0.0,0.0,95,0.05,,,1.08,WeatherCatV1.02B3,2013-03-11 02:21:00,
2013-03-10 21:26:00,55.8,54.4,29.92,South,186,0.0,0.0,95,0.11,,,1.09,WeatherCatV1.02B3,2013-03-11 02:26:00,
2013-03-10 21:31:00,55.8,54.4,29.92,South,186,0.0,0.0,95,0.10,,,1.09,WeatherCatV1.02B3,2013-03-11 02:31:00,
2013-03-10 21:36:00,55.8,54.7,29.92,South,186,0.0,0.0,96,0.05,,,1.09,WeatherCatV1.02B3,2013-03-11 02:36:00,
2013-03-10 21:41:00,55.8,54.4,29.92,South,186,0.0,0.0,95,0.05,,,1.10,WeatherCatV1.02B3,2013-03-11 02:41:00,
2013-03-10 21:46:00,55.8,54.4,29.92,South,186,0.0,0.0,95,0.06,,,1.10,WeatherCatV1.02B3,2013-03-11 02:46:00,
2013-03-10 21:51:00,55.8,54.4,29.91,South,186,0.0,0.0,95,0.13,,,1.12,WeatherCatV1.02B3,2013-03-11 02:51:00,
2013-03-10 21:56:00,55.8,54.4,29.92,South,186,0.0,0.0,95,0.11,,,1.12,WeatherCatV1.02B3,2013-03-11 02:56:00,
2013-03-10 22:01:00,55.9,54.5,29.93,South,186,0.0,0.0,95,0.06,,,1.12,WeatherCatV1.02B3,2013-03-11 03:01:00,
2013-03-10 22:06:00,55.9,54.8,29.93,South,186,0.0,0.0,96,0.04,,,1.12,WeatherCatV1.02B3,2013-03-11 03:06:00,
2013-03-10 22:11:00,55.9,54.8,29.92,ESE,104,2.0,2.0,96,0.84,,,1.16,WeatherCatV1.02B3,2013-03-11 03:11:00,
2013-03-10 22:16:00,55.8,54.4,29.93,East,100,0.0,1.0,95,0.25,,,1.18,WeatherCatV1.02B3,2013-03-11 03:16:00,
2013-03-10 22:21:00,55.8,54.4,29.92,East,100,0.0,0.0,95,0.13,,,1.19,WeatherCatV1.02B3,2013-03-11 03:21:00,
2013-03-10 22:26:00,55.9,54.8,29.93,East,100,0.0,0.0,96,0.55,,,1.22,WeatherCatV1.02B3,2013-03-11 03:26:00,
2013-03-10 22:31:00,55.9,54.8,29.92,East,100,0.0,1.0,96,0.48,,,1.27,WeatherCatV1.02B3,2013-03-11 03:31:00,
2013-03-10 22:36:00,55.9,54.8,29.93,East,100,0.0,1.0,96,0.55,,,1.30,WeatherCatV1.02B3,2013-03-11 03:36:00,
2013-03-10 22:41:00,55.9,54.8,29.92,ENE,74,2.0,4.0,96,0.36,,,1.32,WeatherCatV1.02B3,2013-03-11 03:41:00,
2013-03-10 22:46:00,55.8,54.7,29.93,ENE,75,0.0,1.0,96,0.46,,,1.36,WeatherCatV1.02B3,2013-03-11 03:46:00,
2013-03-10 22:51:00,55.7,54.6,29.92,ENE,73,0.0,1.0,96,0.32,,,1.38,WeatherCatV1.02B3,2013-03-11 03:51:00,
2013-03-10 22:56:00,55.6,54.5,29.92,ENE,73,0.0,0.0,96,0.48,,,1.42,WeatherCatV1.02B3,2013-03-11 03:56:00,
2013-03-10 23:00:00,55.6,54.5,29.92,ENE,73,0.0,0.0,96,0.49,,,1.44,WeatherCatV1.02B3,2013-03-11 04:00:00,
2013-03-10 23:05:00,55.6,54.5,29.92,ENE,73,0.0,0.0,96,0.32,,,1.46,WeatherCatV1.02B3,2013-03-11 04:05:00,
2013-03-10 23:10:00,55.6,54.5,29.92,ENE,73,0.0,0.0,96,0.17,,,1.48,WeatherCatV1.02B3,2013-03-11 04:10:00,
2013-03-10 23:15:00,55.5,54.4,29.92,ENE,73,0.0,0.0,96,0.23,,,1.50,WeatherCatV1.02B3,2013-03-11 04:15:00,
2013-03-10 23:20:00,55.6,54.5,29.92,ENE,73,0.0,0.0,96,0.23,,,1.52,WeatherCatV1.02B3,2013-03-11 04:20:00,
2013-03-10 23:25:00,55.6,54.5,29.92,ENE,73,0.0,0.0,96,0.23,,,1.55,WeatherCatV1.02B3,2013-03-11 04:25:00,
2013-03-10 23:30:00,55.5,54.4,29.92,ENE,73,0.0,2.0,96,0.13,,,1.56,WeatherCatV1.02B3,2013-03-11 04:30:00,
2013-03-10 23:35:00,55.5,54.4,29.93,ENE,74,0.0,3.0,96,0.06,,,1.56,WeatherCatV1.02B3,2013-03-11 04:35:00,
2013-03-10 23:40:00,55.5,54.4,29.94,ENE,65,5.0,5.0,96,0.05,,,1.57,WeatherCatV1.02B3,2013-03-11 04:40:00,
2013-03-10 23:45:00,55.4,54.3,29.93,ENE,67,1.0,4.0,96,0.17,,,1.59,WeatherCatV1.02B3,2013-03-11 04:45:00,
2013-03-10 23:50:00,55.2,54.1,29.92,ENE,67,3.0,4.0,96,0.21,,,1.61,WeatherCatV1.02B3,2013-03-11 04:50:00,
2013-03-10 23:51:00,55.1,54.0,29.93,ENE,67,0.0,4.0,96,0.43,,,1.62,WeatherCatV1.02B3,2013-03-11 04:51:00,
2013-03-10 23:56:00,54.8,53.7,29.92,ENE,67,2.0,2.0,96,0.36,,,1.64,WeatherCatV1.02B3,2013-03-11 04:56:00,